TimeEET,TemperatureF,Dew PointF,Humidity,Sea Level PressureIn,VisibilityMPH,Wind Direction,Wind SpeedMPH,Gust SpeedMPH,PrecipitationIn,Events,Conditions,WindDirDegrees,DateUTC
12:20 AM,48.2,37.4,66,30.12,3.7,East,4.6,-,N/A,,Unknown,90,2013-02-12 22:20:00
12:50 AM,46.4,39.2,76,30.12,3.7,East,4.6,-,N/A,,Unknown,80,2013-02-12 22:50:00
1:20 AM,48.2,39.2,71,30.12,3.7,East,3.5,-,N/A,,Unknown,100,2013-02-12 23:20:00
1:50 AM,48.2,39.2,71,30.12,4.3,East,4.6,-,N/A,,Unknown,80,2013-02-12 23:50:00
2:00 AM,48,39,62,30.13,4,East,4.6,,,,Mist,80,2013-02-13 00:00:00
2:20 AM,46.4,39.2,76,30.12,4.3,ENE,2.3,-,N/A,,Unknown,60,2013-02-13 00:20:00
2:50 AM,46.4,39.2,76,30.09,3.7,ENE,3.5,-,N/A,,Unknown,60,2013-02-13 00:50:00
3:20 AM,41.0,35.6,81,30.09,2.8,Variable,2.3,-,N/A,,Mist,0,2013-02-13 01:20:00
3:50 AM,42.8,35.6,76,30.09,2.5,NNE,3.5,-,N/A,,Mist,20,2013-02-13 01:50:00
4:20 AM,41.0,37.4,87,30.09,3.7,North,3.5,-,N/A,,Unknown,360,2013-02-13 02:20:00
4:50 AM,39.2,35.6,87,30.09,3.7,Variable,2.3,-,N/A,,Unknown,0,2013-02-13 02:50:00
5:20 AM,42.8,41.0,93,30.09,3.7,Variable,2.3,-,N/A,,Unknown,0,2013-02-13 03:20:00
5:50 AM,46.4,37.4,71,30.09,3.7,ENE,3.5,-,N/A,,Unknown,60,2013-02-13 03:50:00
6:20 AM,46.4,37.4,71,30.09,3.7,Variable,2.3,-,N/A,,Unknown,0,2013-02-13 04:20:00
6:50 AM,46.4,35.6,66,30.09,3.7,Variable,2.3,-,N/A,,Mostly Cloudy,0,2013-02-13 04:50:00
7:20 AM,46.4,37.4,71,30.09,3.7,SSE,2.3,-,N/A,,Mostly Cloudy,150,2013-02-13 05:20:00
7:50 AM,46.4,37.4,71,30.09,3.7,ENE,3.5,-,N/A,,Mostly Cloudy,70,2013-02-13 05:50:00
8:00 AM,46,38,65,30.10,4,ENE,3.5,,,,Mist,70,2013-02-13 06:00:00
8:20 AM,50.0,37.4,62,30.09,5.0,ENE,4.6,-,N/A,,Mostly Cloudy,60,2013-02-13 06:20:00
8:50 AM,50.0,37.4,62,30.09,6.2,East,5.8,-,N/A,,Mostly Cloudy,100,2013-02-13 06:50:00
9:20 AM,51.8,37.4,58,30.09,6.2,SE,5.8,-,N/A,,Mostly Cloudy,130,2013-02-13 07:20:00
9:50 AM,51.8,35.6,54,30.09,6.2,East,5.8,-,N/A,,Mostly Cloudy,80,2013-02-13 07:50:00
10:20 AM,51.8,35.6,54,30.09,6.2,East,5.8,-,N/A,,Mostly Cloudy,90,2013-02-13 08:20:00
10:50 AM,51.8,35.6,54,30.09,6.2,East,6.9,-,N/A,,Mostly Cloudy,90,2013-02-13 08:50:00
11:20 AM,53.6,35.6,51,30.09,6.2,East,5.8,-,N/A,,Mostly Cloudy,100,2013-02-13 09:20:00
11:50 AM,53.6,33.8,47,30.09,6.2,East,4.6,-,N/A,,Mostly Cloudy,100,2013-02-13 09:50:00
12:20 PM,53.6,33.8,47,30.09,6.2,ESE,4.6,-,N/A,,Mostly Cloudy,110,2013-02-13 10:20:00
12:50 PM,55.4,35.6,47,30.09,6.2,ESE,4.6,-,N/A,,Mostly Cloudy,110,2013-02-13 10:50:00
1:20 PM,55.4,35.6,47,30.06,6.2,ESE,5.8,-,N/A,,Mostly Cloudy,120,2013-02-13 11:20:00
1:50 PM,55.4,33.8,44,30.06,6.2,ESE,5.8,-,N/A,,Mostly Cloudy,110,2013-02-13 11:50:00
2:00 PM,55,35,34,30.08,6,ESE,5.8,,,,Partly Cloudy,110,2013-02-13 12:00:00
2:20 PM,53.6,35.6,51,30.06,6.2,ESE,4.6,-,N/A,,Mostly Cloudy,110,2013-02-13 12:20:00
2:50 PM,55.4,35.6,47,30.06,6.2,East,4.6,-,N/A,,Mostly Cloudy,100,2013-02-13 12:50:00
3:20 PM,55.4,33.8,44,30.06,6.2,ESE,4.6,-,N/A,,Mostly Cloudy,120,2013-02-13 13:20:00
3:50 PM,55.4,33.8,44,30.06,6.2,Variable,2.3,-,N/A,,Mostly Cloudy,0,2013-02-13 13:50:00
4:20 PM,55.4,32.0,41,30.06,6.2,ESE,4.6,-,N/A,,Mostly Cloudy,110,2013-02-13 14:20:00
4:50 PM,53.6,33.8,47,30.06,6.2,SE,3.5,-,N/A,,Mostly Cloudy,140,2013-02-13 14:50:00
5:20 PM,51.8,33.8,50,30.06,6.2,Variable,1.2,-,N/A,,Mostly Cloudy,0,2013-02-13 15:20:00
5:50 PM,51.8,33.8,50,30.06,6.2,Variable,1.2,-,N/A,,Mostly Cloudy,0,2013-02-13 15:50:00
6:20 PM,55.4,33.8,44,30.04,6.2,NE,5.8,-,N/A,,Mostly Cloudy,50,2013-02-13 16:20:00
6:50 PM,53.6,35.6,51,30.06,6.2,North,6.9,-,N/A,,Mostly Cloudy,360,2013-02-13 16:50:00
7:20 PM,55.4,37.4,51,30.06,6.2,NNE,3.5,-,N/A,,Scattered Clouds,20,2013-02-13 17:20:00
7:50 PM,55.4,39.2,54,30.06,6.2,NE,3.5,-,N/A,,Scattered Clouds,50,2013-02-13 17:50:00
8:00 PM,55,39,43,30.07,6,NE,3.5,,,,Partly Cloudy,50,2013-02-13 18:00:00
8:20 PM,55.4,39.2,54,30.06,-9999.0,NE,3.5,-,N/A,,Clear,50,2013-02-13 18:20:00
8:50 PM,53.6,37.4,54,30.04,-9999.0,ENE,5.8,-,N/A,,Clear,70,2013-02-13 18:50:00
9:20 PM,53.6,37.4,54,30.04,-9999.0,East,5.8,-,N/A,,Clear,80,2013-02-13 19:20:00
9:50 PM,53.6,37.4,54,30.04,-9999.0,NE,4.6,-,N/A,,Clear,40,2013-02-13 19:50:00
10:20 PM,53.6,37.4,54,30.04,-9999.0,ENE,3.5,-,N/A,,Clear,60,2013-02-13 20:20:00
10:50 PM,53.6,37.4,54,30.04,3.7,ENE,4.6,-,N/A,,Unknown,60,2013-02-13 20:50:00
11:20 PM,53.6,37.4,54,30.04,3.7,NE,4.6,-,N/A,,Unknown,50,2013-02-13 21:20:00
11:50 PM,53.6,37.4,54,30.04,3.7,NE,5.8,-,N/A,,Unknown,50,2013-02-13 21:50:00